Volver al catálogo

COSMOS 397 DEB *

ActivoLEO
NORAD 5416·DEBRIS·🇷🇺 Russia

Lanzado Feb 25, 1971 desde Baikonur Cosmodrome

Loading…

Próximos Pases (próximas 24 horas)

TLE

ActualizadoSource: Space-Track

Época: Sep 13, 2026, 02:57 UTC

1 05416U 71015BN  26256.12326701  .00000605  00000-0  63828-3 0  9994
2 05416  65.7837 135.6250 0073522 272.6194 241.4363 13.80917333304969

Sigue COSMOS 397 DEB * en tiempo real con AllMySat

Download on the App Store